Stündliche Wetter Kyzyltu

Heute, 18 Mai, Dienstag

Zeit Temperatur Niederschläge Wind Luftdruck Luftfeuchtigkeit
00:00 +15°C° 0 mm 2 m/S 706 mmHg 41%
01:00 +15°C° 0 mm 2 m/S 705 mmHg 40%
02:00 +15°C° 0 mm 2 m/S 705 mmHg 39%
03:00 +15°C° 0 mm 2 m/S 705 mmHg 39%
04:00 +14°C° 0 mm 2 m/S 705 mmHg 39%
05:00 +14°C° 0 mm 2 m/S 705 mmHg 39%
06:00 +16°C° 0 mm 2 m/S 705 mmHg 38%
07:00 +19°C° 0 mm 2 m/S 705 mmHg 37%
08:00 +21°C° 0 mm 2 m/S 705 mmHg 36%
09:00 +23°C° 0 mm 2 m/S 705 mmHg 35%
10:00 +25°C° 0 mm 3 m/S 705 mmHg 33%
11:00 +26°C° 0 mm 3 m/S 705 mmHg 32%
12:00 +27°C° 0 mm 3 m/S 705 mmHg 31%
13:00 +27°C° 0 mm 2 m/S 705 mmHg 29%
14:00 +28°C° 0 mm 2 m/S 704 mmHg 27%
15:00 +28°C° 0.1 mm 2 m/S 704 mmHg 30%
16:00 +28°C° 0.1 mm 2 m/S 704 mmHg 32%
17:00 +27°C° 0.1 mm 2 m/S 704 mmHg 34%
18:00 +25°C° 0 mm 2 m/S 704 mmHg 37%
19:00 +23°C° 0 mm 2 m/S 703 mmHg 40%
20:00 +19°C° 0 mm 2 m/S 703 mmHg 43%
21:00 +19°C° 0 mm 2 m/S 703 mmHg 42%
22:00 +18°C° 0 mm 3 m/S 703 mmHg 41%
23:00 +18°C° 0 mm 3 m/S 702 mmHg 40%

Morgen, 19 Mai, Mittwoch

Zeit Temperatur Niederschläge Wind Luftdruck Luftfeuchtigkeit
00:00 +17°C° 0 mm 3 m/S 702 mmHg 40%
01:00 +17°C° 0 mm 2 m/S 701 mmHg 41%
02:00 +17°C° 0 mm 2 m/S 701 mmHg 41%
03:00 +17°C° 0 mm 2 m/S 701 mmHg 41%
04:00 +17°C° 0 mm 2 m/S 701 mmHg 41%
05:00 +17°C° 0 mm 2 m/S 701 mmHg 41%
06:00 +19°C° 0 mm 2 m/S 701 mmHg 39%
07:00 +22°C° 0 mm 1 m/S 702 mmHg 36%
08:00 +24°C° 0 mm 1 m/S 702 mmHg 34%
09:00 +25°C° 0 mm 1 m/S 702 mmHg 33%
10:00 +26°C° 0 mm 1 m/S 702 mmHg 32%
11:00 +28°C° 0 mm 2 m/S 701 mmHg 31%
12:00 +28°C° 0.1 mm 2 m/S 701 mmHg 30%
13:00 +29°C° 0.1 mm 1 m/S 701 mmHg 29%
14:00 +30°C° 0.1 mm 1 m/S 701 mmHg 27%
15:00 +29°C° 0.1 mm 2 m/S 701 mmHg 31%
16:00 +28°C° 0.1 mm 3 m/S 700 mmHg 35%
17:00 +28°C° 0.1 mm 4 m/S 700 mmHg 39%
18:00 +26°C° 0 mm 4 m/S 700 mmHg 39%
19:00 +23°C° 0 mm 4 m/S 700 mmHg 38%
20:00 +22°C° 0 mm 5 m/S 700 mmHg 38%
21:00 +21°C° 0 mm 4 m/S 700 mmHg 40%
22:00 +20°C° 0 mm 4 m/S 701 mmHg 42%
23:00 +19°C° 0 mm 3 m/S 701 mmHg 44%

übermorgen, 20 Mai, Donnerstag

Zeit Temperatur Niederschläge Wind Luftdruck Luftfeuchtigkeit
00:00 +19°C° 0 mm 3 m/S 701 mmHg 45%
01:00 +18°C° 0 mm 3 m/S 701 mmHg 46%
02:00 +18°C° 0 mm 2 m/S 701 mmHg 47%
03:00 +18°C° 0.1 mm 3 m/S 701 mmHg 51%
04:00 +17°C° 0.1 mm 3 m/S 701 mmHg 54%
05:00 +17°C° 0.1 mm 3 m/S 701 mmHg 58%
06:00 +19°C° 0.1 mm 3 m/S 702 mmHg 51%
07:00 +23°C° 0.1 mm 2 m/S 702 mmHg 45%
08:00 +25°C° 0.1 mm 2 m/S 702 mmHg 39%
09:00 +27°C° 0.1 mm 3 m/S 703 mmHg 36%
10:00 +28°C° 0.1 mm 3 m/S 703 mmHg 33%
11:00 +29°C° 0.1 mm 4 m/S 703 mmHg 31%
12:00 +28°C° 0.1 mm 4 m/S 703 mmHg 33%
13:00 +28°C° 0.1 mm 4 m/S 703 mmHg 36%
14:00 +28°C° 0.1 mm 5 m/S 703 mmHg 39%
15:00 +26°C° 0.7 mm 5 m/S 703 mmHg 46%
16:00 +23°C° 0.7 mm 5 m/S 704 mmHg 54%
17:00 +21°C° 0.7 mm 5 m/S 704 mmHg 61%
18:00 +19°C° 0.6 mm 4 m/S 705 mmHg 65%
19:00 +18°C° 0.6 mm 3 m/S 705 mmHg 69%
20:00 +16°C° 0.6 mm 2 m/S 706 mmHg 72%
21:00 +16°C° 0.1 mm 2 m/S 706 mmHg 71%
22:00 +15°C° 0.1 mm 1 m/S 706 mmHg 69%
23:00 +14°C° 0.1 mm 1 m/S 706 mmHg 67%

21 Mai, Freitag

Zeit Temperatur Niederschläge Wind Luftdruck Luftfeuchtigkeit
00:00 +14°C° 0 mm 1 m/S 706 mmHg 66%
01:00 +13°C° 0 mm 1 m/S 706 mmHg 64%
02:00 +13°C° 0 mm 1 m/S 706 mmHg 62%
03:00 +12°C° 0 mm 1 m/S 706 mmHg 62%
04:00 +12°C° 0 mm 1 m/S 706 mmHg 62%
05:00 +12°C° 0 mm 1 m/S 707 mmHg 62%
06:00 +14°C° 0 mm 1 m/S 707 mmHg 56%
07:00 +15°C° 0 mm 2 m/S 707 mmHg 50%
08:00 +17°C° 0 mm 2 m/S 708 mmHg 45%
09:00 +18°C° 0 mm 2 m/S 708 mmHg 41%
10:00 +20°C° 0 mm 2 m/S 708 mmHg 37%
11:00 +21°C° 0 mm 3 m/S 708 mmHg 33%
12:00 +21°C° 0 mm 3 m/S 708 mmHg 32%
13:00 +22°C° 0 mm 3 m/S 708 mmHg 31%
14:00 +24°C° 0 mm 3 m/S 708 mmHg 30%
15:00 +22°C° 0 mm 3 m/S 707 mmHg 32%
16:00 +22°C° 0 mm 3 m/S 707 mmHg 34%
17:00 +22°C° 0 mm 3 m/S 707 mmHg 35%
18:00 +19°C° 0 mm 3 m/S 708 mmHg 40%
19:00 +17°C° 0 mm 3 m/S 708 mmHg 45%
20:00 +15°C° 0 mm 2 m/S 708 mmHg 49%
21:00 +14°C° 0 mm 2 m/S 708 mmHg 49%
22:00 +14°C° 0 mm 2 m/S 708 mmHg 49%
23:00 +13°C° 0 mm 1 m/S 708 mmHg 49%

22 Mai, Samstag

Zeit Temperatur Niederschläge Wind Luftdruck Luftfeuchtigkeit
00:00 +12°C° 0 mm 1 m/S 708 mmHg 47%
01:00 +12°C° 0 mm 1 m/S 707 mmHg 44%
02:00 +11°C° 0 mm 1 m/S 707 mmHg 42%
03:00 +10°C° 0 mm 2 m/S 707 mmHg 42%
04:00 +10°C° 0 mm 2 m/S 707 mmHg 42%
05:00 +10°C° 0 mm 3 m/S 707 mmHg 41%
06:00 +12°C° 0 mm 3 m/S 707 mmHg 40%
07:00 +15°C° 0 mm 2 m/S 707 mmHg 38%
08:00 +16°C° 0 mm 2 m/S 707 mmHg 37%
09:00 +18°C° 0 mm 2 m/S 707 mmHg 35%
10:00 +19°C° 0 mm 2 m/S 707 mmHg 34%
11:00 +21°C° 0 mm 2 m/S 707 mmHg 32%
12:00 +21°C° 0 mm 2 m/S 707 mmHg 32%
13:00 +23°C° 0 mm 1 m/S 707 mmHg 32%
14:00 +24°C° 0 mm 1 m/S 707 mmHg 32%
15:00 +24°C° 0 mm 1 m/S 707 mmHg 33%
16:00 +24°C° 0 mm 1 m/S 706 mmHg 34%
17:00 +24°C° 0 mm 1 m/S 706 mmHg 35%
18:00 +22°C° 0 mm 1 m/S 706 mmHg 40%
19:00 +20°C° 0 mm 1 m/S 706 mmHg 45%
20:00 +17°C° 0 mm 2 m/S 706 mmHg 49%
21:00 +17°C° 0 mm 2 m/S 706 mmHg 50%
22:00 +16°C° 0 mm 1 m/S 706 mmHg 50%
23:00 +16°C° 0 mm 1 m/S 706 mmHg 50%

23 Mai, Sonntag

Zeit Temperatur Niederschläge Wind Luftdruck Luftfeuchtigkeit
00:00 +16°C° 0 mm 1 m/S 705 mmHg 49%
01:00 +16°C° 0 mm 1 m/S 705 mmHg 49%
02:00 +16°C° 0 mm 1 m/S 705 mmHg 48%
03:00 +16°C° 0 mm 1 m/S 705 mmHg 49%
04:00 +15°C° 0 mm 1 m/S 704 mmHg 50%
05:00 +15°C° 0 mm 1 m/S 704 mmHg 50%
06:00 +18°C° 0 mm 1 m/S 704 mmHg 47%
07:00 +19°C° 0 mm 2 m/S 704 mmHg 44%
08:00 +21°C° 0 mm 2 m/S 704 mmHg 41%
09:00 +22°C° 0 mm 3 m/S 704 mmHg 38%
10:00 +25°C° 0 mm 3 m/S 704 mmHg 36%
11:00 +26°C° 0 mm 4 m/S 704 mmHg 33%
12:00 +27°C° 0 mm 4 m/S 704 mmHg 33%
13:00 +28°C° 0 mm 3 m/S 703 mmHg 32%
14:00 +29°C° 0 mm 3 m/S 703 mmHg 31%
15:00 +29°C° 0.1 mm 2 m/S 703 mmHg 34%
16:00 +28°C° 0.1 mm 2 m/S 703 mmHg 37%
17:00 +28°C° 0.1 mm 1 m/S 702 mmHg 40%
18:00 +26°C° 0 mm 2 m/S 702 mmHg 44%
19:00 +24°C° 0 mm 2 m/S 702 mmHg 48%
20:00 +21°C° 0 mm 3 m/S 703 mmHg 52%
21:00 +20°C° 0 mm 3 m/S 703 mmHg 50%
22:00 +20°C° 0 mm 3 m/S 703 mmHg 49%
23:00 +20°C° 0 mm 3 m/S 703 mmHg 47%
Mehr zeigen

Wir brauchen deine Erlaubnis

Meteoprog und unser Service Anbieter werden persönliche Daten aufbewahren, so wie Cookies, Geräte Bezeichnung oder ähnliche Technologien von deinem Gerät und Prozess, so wie Persönliche Daten Inhalte und Werbungen, genauso wie social Media und den Verkehr zu analysieren.

  • Aufbewahrung und/oder Zugang zu deiner Geräte Informationen.

    Cookies, Geräte Bezeichnung oder andere Informationen, können aufbewahrt oder Zugang zu deinem Gerät erhalten, für den Grund, der oben angegeben wird.

  • Personalisierte Werbung und Inhalte, Messungen, Einblick in das Publikum und Produkt Entwicklung.

    Werbungen und Inhalte können personalisiert werden, basierend auf ein Profil. Mehr Daten können besser personalisierte Werbungen und Inhalte hinzufügen. Werbung und Inhalte können gezeigt und gemessen werden. Einblicke über das Publikum, welche die Werbung gesehen haben und den Inhalt, können abgeleitet werden. So wie Daten können genutzt werden, um es zu verbessern oder die Benutzer Erfahrung zu verbessern das System und die Software.

Wenn du “Ich stimme zu” klickst, erlaubst du uns, die Cookies zu benutzen die Geräte Bezeichnung, den Web oder ähnliche Technologien zu benutzen. Deine Settings, können in deinem Gerät bei deinem Browser geändert werden.

Für den bestimmten Zweck, berechtigten Interessen beruhen darauf, mehr als auf den Inhalt. Du kannst mehr darüber in unseren Privaten und Cookie Politik lesen.